Location: ??? ?????
(30.6482°N, 60.5850°E)
Time: 05:08:22
(UTC+00:00)

Cosmos 1626 - Pass Details

Date: 09 April 2020
Orbit: 492 x 495 km, 82.5° (Epoch: 05 June)

Event Time Altitude Azimuth Distance (km) Brightness Sun altitude
Rises 14:54:54 0° 340° (NNW) 2,579 6.3 -7.8°
Reaches altitude 10° 14:57:12 10° 329° (NNW) 1,693 5.5 -8.3°
Maximum altitude 15:00:24 28° 269° (W) 948 4.5 -8.9°
Drops below altitude 10° 15:03:36 10° 209° (SSW) 1,684 5.0 -9.6°
Sets 15:05:53 0° 197° (SSW) 2,562 5.8 -10.1°
